period_start,C,m1,H,J0,J1,J2,J3,J4,J5,JA,JB,JC,JD,JJ,JK,JN,#
2015-03-30 00:00:00,0.12,2.07,0.00,24.27,27.56,30.31,4.68,26.90,1003.92,2031.00,2661.87,2748.32,2969.31,350.29,342.32,16.79,0000 0000 0000 0000 000000
2015-03-30 00:05:02,0.12,2.07,0.00,24.35,27.57,30.36,4.65,26.93,1003.92,2031.00,2660.75,2747.57,2968.46,349.24,341.00,16.82,0000 0000 0000 0000 000000
2015-03-30 00:10:03,0.12,2.08,0.00,24.64,27.58,30.36,4.64,26.74,1003.92,2031.00,2659.60,2746.72,2967.62,349.25,340.85,16.85,0000 0000 0000 0000 000000
2015-03-30 00:15:04,0.11,2.08,0.00,24.35,27.60,30.48,4.66,26.83,1003.92,2031.00,2658.41,2745.85,2966.63,349.69,341.35,16.88,0000 0000 0000 0000 000000
2015-03-30 00:20:05,0.09,2.08,0.00,23.69,27.62,30.56,4.73,26.82,1003.92,2031.00,2657.23,2745.05,2965.84,349.96,342.67,16.90,0000 0000 0000 0000 000000
2015-03-30 00:25:07,0.12,2.09,0.00,23.41,27.62,30.27,4.73,26.85,1003.92,2031.00,2655.97,2744.27,2965.01,349.81,342.69,16.93,0000 0000 0000 0000 000000
2015-03-30 00:30:08,0.08,2.09,0.00,23.78,27.60,29.88,4.73,26.73,1003.88,2031.01,2654.96,2743.85,2964.16,350.48,342.78,16.96,0000 0000 0000 0000 000000
2015-03-30 00:35:09,0.10,2.09,0.00,23.86,27.58,29.89,4.69,26.85,1003.82,2031.04,2653.96,2743.06,2963.59,349.81,342.18,16.99,0000 0000 0000 0000 000000
2015-03-30 00:40:11,0.11,2.10,0.00,23.87,27.56,30.05,4.70,26.83,1003.68,2031.05,2652.90,2742.26,2962.85,350.64,342.89,17.02,0000 0000 0000 0000 000000
2015-03-30 00:45:12,0.13,2.10,0.00,23.94,27.55,30.13,4.66,26.85,1003.59,2031.14,2651.72,2741.57,2962.01,349.65,341.81,17.05,0000 0000 0000 0000 000000
2015-03-30 00:50:13,0.14,2.10,0.00,24.00,27.54,30.19,4.69,26.86,1003.60,2031.23,2650.54,2740.71,2961.09,349.95,341.99,17.08,0000 0000 0000 0000 000000
2015-03-30 00:55:15,0.11,2.11,0.00,24.15,27.53,30.23,4.68,26.98,1003.57,2031.15,2649.20,2739.77,2960.00,349.64,341.29,17.11,0000 0000 0000 0000 000000
2015-03-30 01:00:16,0.12,2.11,0.00,24.24,27.54,30.28,4.72,26.92,1003.61,2031.10,2647.78,2738.79,2959.00,350.13,341.77,17.14,0000 0000 0000 0000 000000
2015-03-30 01:05:17,0.14,2.12,0.00,24.46,27.55,30.31,4.72,26.70,1003.50,2031.19,2646.56,2737.83,2957.99,350.77,342.28,17.17,0000 0000 0000 0000 000000
2015-03-30 01:10:19,0.11,2.12,0.00,24.65,27.57,30.31,4.74,26.81,1003.49,2031.05,2645.19,2736.89,2956.93,350.45,341.67,17.20,0000 0000 0000 0000 000000
2015-03-30 01:15:20,0.12,2.12,0.00,24.20,27.59,30.47,4.66,26.85,1003.56,2031.03,2643.93,2735.97,2955.93,349.20,341.07,17.23,0000 0000 0000 0000 000000
2015-03-30 01:20:21,0.14,2.13,0.00,23.59,27.60,30.48,4.65,26.85,1003.50,2031.04,2642.57,2735.06,2954.93,349.75,342.44,17.26,0000 0000 0000 0000 000000
2015-03-30 01:25:23,0.13,2.13,0.00,23.45,27.60,30.17,4.74,26.78,1003.44,2031.08,2641.21,2734.13,2954.00,350.28,342.85,17.29,0000 0000 0000 0000 000000
2015-03-30 01:30:25,0.21,2.14,0.00,23.87,27.58,29.87,4.76,26.77,1003.43,2031.47,2640.14,2733.48,2953.14,350.76,342.94,17.31,0000 0000 0000 0000 000000
2015-03-30 01:35:26,0.14,2.14,0.00,23.88,27.57,29.90,4.71,26.86,1003.44,2031.84,2639.13,2732.83,2952.41,350.07,342.15,17.34,0000 0000 0000 0000 000000
2015-03-30 01:40:27,0.09,2.15,0.00,23.91,27.55,30.06,4.74,26.83,1003.43,2031.84,2637.94,2731.94,2951.48,350.07,342.13,17.37,0000 0000 0000 0000 000000
2015-03-30 01:45:28,0.13,2.15,0.00,24.05,27.55,30.15,4.71,26.87,1003.43,2031.77,2636.76,2731.04,2950.45,350.09,341.99,17.40,0000 0000 0000 0000 000000
2015-03-30 01:50:29,0.16,2.15,0.00,24.15,27.54,30.21,4.69,26.84,1003.43,2031.81,2635.53,2730.10,2949.53,349.96,342.04,17.43,0000 0000 0000 0000 000000
2015-03-30 01:55:31,0.09,2.16,0.00,24.25,27.54,30.25,4.72,26.98,1003.43,2031.80,2634.45,2729.30,2948.62,349.64,341.69,17.46,0000 0000 0000 0000 000000
2015-03-30 02:00:32,0.13,2.16,0.00,24.43,27.55,30.29,4.74,26.88,1003.43,2031.69,2633.22,2728.38,2947.71,350.32,341.84,17.49,0000 0000 0000 0000 000000
2015-03-30 02:05:33,0.11,2.16,0.00,24.67,27.56,30.25,4.70,26.96,1003.43,2031.70,2632.15,2727.57,2946.76,350.09,341.33,17.52,0000 0000 0000 0000 000000
2015-03-30 02:10:35,0.11,2.17,0.00,24.31,27.57,30.43,4.63,26.77,1003.43,2031.54,2630.74,2726.59,2945.72,349.70,341.37,17.55,0000 0000 0000 0000 000000
2015-03-30 02:15:36,0.11,2.17,0.00,23.73,27.60,30.50,4.68,26.94,1003.41,2031.27,2629.43,2725.69,2944.67,350.26,342.64,17.58,0000 0000 0000 0000 000000
2015-03-30 02:20:37,0.09,2.17,0.00,23.49,27.60,30.22,4.73,26.82,1003.23,2031.23,2628.04,2724.84,2943.85,350.14,342.68,17.61,0000 0000 0000 0000 000000
2015-03-30 02:25:39,0.18,2.18,0.00,23.88,27.57,29.94,4.75,26.90,1002.98,2031.63,2626.99,2724.05,2943.04,350.30,342.25,17.64,0000 0000 0000 0000 000000
2015-03-30 02:30:40,0.15,2.18,0.00,23.90,27.56,29.92,4.74,26.98,1002.96,2031.85,2626.04,2723.35,2942.21,350.35,342.23,17.67,0000 0000 0000 0000 000000
2015-03-30 02:35:41,0.11,2.19,0.00,23.84,27.55,30.06,4.74,26.98,1002.95,2031.95,2625.01,2722.74,2941.49,350.65,342.81,17.70,0000 0000 0000 0000 000000
2015-03-30 02:40:42,0.13,2.19,0.00,24.01,27.53,30.09,4.66,26.88,1002.94,2031.89,2623.78,2721.75,2940.45,350.01,341.88,17.72,0000 0000 0000 0000 000000
2015-03-30 02:45:43,0.10,2.19,0.00,24.11,27.52,30.19,4.67,26.98,1002.94,2031.91,2622.80,2720.92,2939.53,350.38,342.05,17.75,0000 0000 0000 0000 000000
2015-03-30 02:50:45,0.09,2.20,0.00,24.25,27.52,30.22,4.73,27.12,1002.94,2031.77,2621.70,2720.04,2938.60,350.25,341.77,17.78,0000 0000 0000 0000 000000
2015-03-30 02:55:46,0.11,2.20,0.00,24.44,27.54,30.25,4.70,27.04,1002.94,2031.65,2620.49,2719.11,2937.59,349.64,340.99,17.81,0000 0000 0000 0000 000000
2015-03-30 03:00:48,0.08,2.20,0.00,24.75,27.55,30.18,4.66,26.90,1002.94,2031.32,2619.30,2718.15,2936.56,350.17,341.16,17.84,0000 0000 0000 0000 000000
2015-03-30 03:05:49,0.10,2.20,0.00,24.28,27.57,30.39,4.70,27.07,1002.94,2031.19,2618.15,2717.33,2935.72,349.66,341.33,17.87,0000 0000 0000 0000 000000
2015-03-30 03:10:51,0.15,2.21,0.00,23.70,27.58,30.39,4.75,26.88,1002.94,2031.18,2616.78,2716.49,2934.76,350.60,342.94,17.90,0000 0000 0000 0000 000000
2015-03-30 03:15:52,0.10,2.21,0.00,23.51,27.58,30.16,4.69,26.81,1002.94,2031.23,2615.60,2715.79,2933.92,350.75,343.20,17.93,0000 0000 0000 0000 000000
2015-03-30 03:20:53,0.14,2.22,0.00,23.98,27.57,29.84,4.69,26.98,1002.92,2031.32,2614.43,2715.01,2933.06,350.39,342.16,17.96,0000 0000 0000 0000 000000
2015-03-30 03:25:54,0.18,2.22,0.00,24.01,27.55,29.91,4.67,26.90,1002.88,2031.79,2613.58,2714.27,2932.32,349.63,341.27,17.99,0000 0000 0000 0000 000000
2015-03-30 03:30:56,0.11,2.22,0.00,23.97,27.54,30.09,4.65,26.90,1002.85,2031.92,2612.60,2713.70,2931.68,349.70,341.70,18.02,0000 0000 0000 0000 000000
2015-03-30 03:35:57,0.08,2.23,0.00,24.12,27.52,30.17,4.66,26.89,1002.74,2031.91,2611.56,2712.99,2930.88,350.05,341.71,18.05,0000 0000 0000 0000 000000
2015-03-30 03:40:58,0.13,2.23,0.00,24.29,27.52,30.18,4.70,27.05,1002.78,2031.91,2610.47,2712.15,2929.95,350.01,341.58,18.08,0000 0000 0000 0000 000000
2015-03-30 03:46:00,0.11,2.23,0.00,24.40,27.52,30.23,4.71,27.02,1002.81,2031.89,2609.53,2711.33,2929.02,350.30,341.64,18.11,0000 0000 0000 0000 000000
2015-03-30 03:51:01,0.12,2.24,0.00,24.71,27.54,30.13,4.65,26.95,1002.78,2031.83,2608.39,2710.50,2928.08,349.59,340.67,18.13,0000 0000 0000 0000 000000
2015-03-30 03:56:02,0.06,2.24,0.00,24.53,27.56,30.31,4.67,26.99,1002.77,2031.58,2607.17,2709.61,2927.29,349.51,340.75,18.16,0000 0000 0000 0000 000000
2015-03-30 04:01:03,0.11,2.24,0.00,23.89,27.57,30.40,4.68,26.79,1002.76,2031.51,2605.93,2708.88,2926.28,349.78,341.71,18.19,0000 0000 0000 0000 000000
2015-03-30 04:06:05,0.12,2.25,0.00,23.59,27.57,30.34,4.73,26.85,1002.53,2031.54,2604.76,2708.06,2925.51,350.59,342.85,18.22,0000 0000 0000 0000 000000
2015-03-30 04:11:06,0.13,2.25,0.00,23.83,27.56,29.95,4.72,26.84,1002.47,2031.66,2603.81,2707.33,2924.81,350.28,342.29,18.25,0000 0000 0000 0000 000000
2015-03-30 04:16:07,0.10,2.25,0.00,24.09,27.55,29.86,4.67,26.91,1002.46,2031.92,2602.85,2706.88,2924.04,349.93,341.61,18.28,0000 0000 0000 0000 000000
2015-03-30 04:21:09,0.12,2.26,0.00,24.05,27.52,30.04,4.67,26.90,1002.46,2031.96,2601.79,2706.06,2923.27,350.19,341.81,18.31,0000 0000 0000 0000 000000
2015-03-30 04:26:10,0.11,2.26,0.00,24.14,27.52,30.12,4.68,26.92,1002.46,2031.97,2600.92,2705.39,2922.58,349.97,341.42,18.34,0000 0000 0000 0000 000000
2015-03-30 04:31:11,0.09,2.26,0.00,24.28,27.50,30.17,4.67,27.00,1002.46,2031.98,2599.96,2704.74,2921.80,350.11,341.44,18.37,0000 0000 0000 0000 000000
2015-03-30 04:36:13,0.10,2.27,0.00,24.49,27.51,30.21,4.69,27.10,1002.46,2031.95,2598.88,2703.95,2920.94,349.82,340.92,18.40,0000 0000 0000 0000 000000
2015-03-30 04:41:14,0.12,2.27,0.00,24.75,27.52,30.14,4.65,27.02,1002.46,2031.94,2597.82,2703.09,2920.06,349.82,340.57,18.43,0000 0000 0000 0000 000000
2015-03-30 04:46:16,0.14,2.27,0.00,24.29,27.53,30.33,4.67,26.86,1002.46,2031.90,2596.56,2702.24,2919.13,350.26,341.75,18.46,0000 0000 0000 0000 000000
2015-03-30 04:51:17,0.13,2.28,0.00,23.76,27.54,30.41,4.68,26.88,1002.46,2031.90,2595.33,2701.43,2918.16,349.78,341.63,18.49,0000 0000 0000 0000 000000
2015-03-30 04:56:18,0.12,2.28,0.00,23.57,27.53,30.21,4.71,26.90,1002.45,2031.94,2594.01,2700.68,2917.42,350.24,342.51,18.52,0000 0000 0000 0000 000000
2015-03-30 05:01:19,0.07,2.29,0.00,23.98,27.52,29.84,4.63,26.95,1002.41,2031.98,2593.06,2700.03,2916.85,350.23,341.92,18.54,0000 0000 0000 0000 000000
2015-03-30 05:06:20,0.09,2.29,0.00,24.01,27.50,29.84,4.65,26.87,1002.34,2031.99,2592.42,2699.68,2916.08,349.38,341.04,18.57,0000 0000 0000 0000 000000
2015-03-30 05:11:21,0.09,2.29,0.00,24.11,27.48,30.03,4.69,26.93,1002.34,2031.99,2591.62,2698.99,2915.48,350.24,341.64,18.60,0000 0000 0000 0000 000000
2015-03-30 05:16:23,0.11,2.29,0.00,24.18,27.47,30.12,4.68,26.95,1002.37,2031.99,2590.57,2698.17,2914.76,349.98,341.68,18.63,0000 0000 0000 0000 000000
2015-03-30 05:21:24,0.11,2.30,0.00,24.27,27.47,30.14,4.65,26.99,1002.40,2031.99,2589.55,2697.48,2913.92,350.40,341.74,18.66,0000 0000 0000 0000 000000
2015-03-30 05:26:25,0.10,2.30,0.00,24.58,27.47,30.13,4.65,26.88,1002.38,2031.99,2588.48,2696.74,2913.07,349.95,340.99,18.69,0000 0000 0000 0000 000000
2015-03-30 05:31:26,0.10,2.30,0.00,24.85,27.49,30.01,4.66,27.00,1002.41,2031.99,2587.50,2696.00,2912.20,349.88,340.41,18.72,0000 0000 0000 0000 000000
2015-03-30 05:36:28,0.13,2.31,0.00,24.42,27.51,30.25,4.70,26.77,1002.43,2031.98,2586.29,2695.12,2911.33,350.07,341.11,18.75,0000 0000 0000 0000 000000
2015-03-30 05:41:29,0.12,2.31,0.00,23.90,27.52,30.37,4.65,26.88,1002.41,2031.98,2585.09,2694.26,2910.42,349.66,341.46,18.78,0000 0000 0000 0000 000000
2015-03-30 05:46:30,0.08,2.31,0.00,23.68,27.52,30.32,4.70,26.86,1002.36,2031.98,2584.07,2693.78,2909.78,349.66,341.70,18.81,0000 0000 0000 0000 000000
2015-03-30 05:51:31,0.09,2.32,0.00,24.02,27.51,29.99,4.69,26.83,1002.39,2031.99,2583.18,2693.04,2909.03,350.09,341.79,18.84,0000 0000 0000 0000 000000
2015-03-30 05:56:32,0.11,2.32,0.00,24.17,27.50,29.99,4.66,26.91,1002.37,2031.99,2582.35,2692.51,2908.33,349.78,341.06,18.87,0000 0000 0000 0000 000000
2015-03-30 06:01:33,0.07,2.32,0.00,24.18,27.49,30.09,4.67,26.94,1002.35,2031.99,2581.43,2691.93,2907.71,349.40,340.86,18.90,0000 0000 0000 0000 000000
2015-03-30 06:06:34,0.10,2.32,0.00,24.33,27.48,30.18,4.63,26.88,1002.33,2031.99,2580.56,2691.14,2906.99,349.55,340.84,18.93,0000 0000 0000 0000 000000
2015-03-30 06:11:36,0.10,2.33,0.00,24.48,27.48,30.18,4.67,26.99,1002.26,2031.99,2579.79,2690.53,2906.15,350.23,341.20,18.95,0000 0000 0000 0000 000000
2015-03-30 06:16:37,0.12,2.33,0.00,24.79,27.50,30.03,4.66,26.95,1002.31,2031.98,2578.72,2689.70,2905.25,349.93,340.86,18.98,0000 0000 0000 0000 000000
2015-03-30 06:21:38,0.10,2.33,0.00,24.52,27.50,30.20,4.70,26.91,1002.37,2031.96,2577.65,2688.94,2904.35,350.18,341.24,19.01,0000 0000 0000 0000 000000
2015-03-30 06:26:40,0.12,2.34,0.00,23.94,27.52,30.33,4.75,27.01,1002.44,2031.97,2576.52,2688.09,2903.68,350.25,341.99,19.04,0000 0000 0000 0000 000000
2015-03-30 06:31:41,0.10,2.34,0.00,23.69,27.52,30.25,4.64,26.96,1002.35,2031.95,2575.39,2687.42,2902.86,349.60,341.50,19.07,0000 0000 0000 0000 000000
2015-03-30 06:36:42,0.08,2.34,0.00,23.90,27.50,29.94,4.71,26.89,1002.25,2031.94,2574.36,2686.95,2902.04,350.82,342.58,19.10,0000 0000 0000 0000 000000
2015-03-30 06:41:43,0.12,2.35,0.00,24.22,27.49,29.90,4.64,26.89,1002.17,2031.97,2573.53,2686.21,2901.35,349.87,341.22,19.13,0000 0000 0000 0000 000000
2015-03-30 06:46:45,0.09,2.35,0.00,24.21,27.47,30.04,4.67,26.84,1002.25,2031.98,2572.64,2685.68,2900.77,350.20,341.57,19.16,0000 0000 0000 0000 000000
2015-03-30 06:51:46,0.07,2.35,0.00,24.30,27.47,30.10,4.64,26.80,1002.31,2031.98,2571.72,2685.00,2900.00,349.88,340.91,19.19,0000 0000 0000 0000 000000
2015-03-30 06:56:47,0.12,2.36,0.00,24.50,27.47,30.14,4.64,26.98,1002.21,2031.98,2570.74,2684.24,2899.16,349.65,340.97,19.22,0000 0000 0000 0000 000000
2015-03-30 07:01:48,0.10,2.36,0.00,24.86,27.47,30.03,4.62,26.86,1002.22,2031.98,2569.86,2683.61,2898.40,349.82,340.62,19.25,0000 0000 0000 0000 000000
2015-03-30 07:06:49,0.10,2.36,0.00,24.67,27.48,30.10,4.66,26.75,1002.20,2031.97,2568.82,2682.90,2897.65,350.07,340.73,19.28,0000 0000 0000 0000 000000
2015-03-30 07:11:51,0.10,2.36,0.00,24.04,27.50,30.36,4.69,26.84,1002.14,2031.96,2567.72,2682.07,2896.91,349.95,341.44,19.31,0000 0000 0000 0000 000000
2015-03-30 07:16:53,0.12,2.37,0.00,23.74,27.50,30.34,4.66,26.87,1002.00,2031.97,2566.70,2681.45,2896.08,349.72,341.59,19.33,0000 0000 0000 0000 000000
2015-03-30 07:21:54,0.07,2.37,0.00,23.83,27.48,29.97,4.63,26.79,1001.98,2031.96,2565.71,2680.93,2895.51,349.88,341.61,19.36,0000 0000 0000 0000 000000
2015-03-30 07:26:55,0.13,2.37,0.00,24.22,27.47,29.84,4.73,26.87,1001.97,2031.99,2564.72,2680.10,2894.49,350.50,341.76,19.39,0000 0000 0000 0000 000000
2015-03-30 07:31:56,0.07,2.38,0.00,24.14,27.45,30.02,4.68,26.82,1001.97,2031.99,2563.95,2679.48,2893.96,350.34,342.16,19.42,0000 0000 0000 0000 000000
2015-03-30 07:36:57,0.08,2.38,0.00,24.31,27.45,30.03,4.70,26.82,1001.97,2031.99,2563.07,2678.88,2893.13,349.97,340.99,19.45,0000 0000 0000 0000 000000
2015-03-30 07:41:59,0.11,2.38,0.00,24.49,27.45,30.09,4.71,26.96,1001.97,2031.99,2562.15,2678.08,2892.49,350.02,340.98,19.48,0000 0000 0000 0000 000000
2015-03-30 07:47:00,0.11,2.39,0.00,24.88,27.45,30.04,4.69,26.87,1001.97,2031.99,2561.17,2677.36,2891.76,350.34,340.81,19.51,0000 0000 0000 0000 000000
2015-03-30 07:52:01,0.11,2.39,0.00,24.46,27.45,30.17,4.61,26.77,1001.97,2031.99,2560.10,2676.64,2890.91,350.09,341.15,19.54,0000 0000 0000 0000 000000
2015-03-30 07:57:02,0.10,2.39,0.00,23.89,27.46,30.34,4.67,26.86,1001.98,2031.98,2559.02,2675.87,2890.05,349.72,341.36,19.57,0000 0000 0000 0000 000000
2015-03-30 08:02:04,0.11,2.40,0.00,23.67,27.45,30.18,4.71,26.85,1001.97,2031.98,2558.05,2675.07,2889.22,350.36,342.26,19.60,0000 0000 0000 0000 000000
2015-03-30 08:07:05,0.09,2.40,0.00,23.90,27.44,29.82,4.62,26.76,1001.97,2031.99,2557.13,2674.67,2888.69,349.68,341.39,19.63,0000 0000 0000 0000 000000
2015-03-30 08:12:06,0.07,2.40,0.00,24.15,27.42,29.83,4.68,26.79,1001.97,2031.99,2556.37,2674.03,2888.02,349.91,341.21,19.66,0000 0000 0000 0000 000000
2015-03-30 08:17:08,0.09,2.40,0.00,24.09,27.41,29.94,4.69,26.85,1001.95,2031.99,2555.68,2673.63,2887.54,350.57,342.26,19.69,0000 0000 0000 0000 000000
2015-03-30 08:22:09,0.06,2.41,0.00,24.35,27.40,30.06,4.65,26.91,1001.96,2031.99,2554.79,2673.00,2886.91,349.75,340.87,19.72,0000 0000 0000 0000 000000
2015-03-30 08:27:11,0.11,2.41,0.00,24.59,27.40,30.08,4.70,26.87,1001.97,2032.00,2553.93,2672.21,2886.08,350.13,340.98,19.74,0000 0000 0000 0000 000000
2015-03-30 08:32:12,0.11,2.41,0.00,24.88,27.41,29.95,4.70,26.82,1001.97,2032.00,2553.02,2671.67,2885.40,349.89,340.54,19.77,0000 0000 0000 0000 000000
2015-03-30 08:37:14,0.08,2.41,0.00,24.56,27.42,30.10,4.68,26.78,1001.97,2032.00,2552.08,2671.00,2884.66,349.67,340.64,19.80,0000 0000 0000 0000 000000
2015-03-30 08:42:15,0.11,2.42,0.00,24.00,27.43,30.36,4.63,26.91,1001.97,2032.00,2551.04,2670.20,2883.93,349.29,340.85,19.83,0000 0000 0000 0000 000000
2015-03-30 08:47:16,0.10,2.42,0.00,23.75,27.43,30.23,4.73,26.88,1001.97,2032.00,2550.02,2669.72,2883.09,350.01,341.92,19.86,0000 0000 0000 0000 000000
2015-03-30 08:52:17,0.09,2.42,0.00,23.85,27.42,29.88,4.71,26.84,1001.97,2032.00,2549.14,2669.03,2882.59,349.56,341.22,19.89,0000 0000 0000 0000 000000
2015-03-30 08:57:18,0.10,2.43,0.00,24.21,27.40,29.83,4.72,26.83,1001.97,2032.00,2548.24,2668.42,2881.94,350.20,341.57,19.92,0000 0000 0000 0000 000000
2015-03-30 09:02:19,0.05,2.43,0.00,24.21,27.40,29.97,4.66,26.86,1001.97,2032.00,2547.72,2668.01,2881.24,349.83,341.02,19.95,0000 0000 0000 0000 000000
2015-03-30 09:07:21,0.09,2.43,0.00,24.29,27.39,30.05,4.69,26.88,1001.97,2032.01,2546.86,2667.41,2880.79,350.10,341.22,19.98,0000 0000 0000 0000 000000
2015-03-30 09:12:22,0.09,2.43,0.00,24.36,27.38,30.03,4.69,26.73,1001.97,2032.00,2545.93,2666.77,2880.01,350.07,341.01,20.01,0000 0000 0000 0000 000000
2015-03-30 09:17:23,0.10,2.44,0.00,24.78,27.40,30.04,4.64,26.80,1001.98,2032.00,2545.00,2666.02,2879.20,349.56,340.27,20.04,0000 0000 0000 0000 000000
2015-03-30 09:22:25,0.12,2.44,0.00,24.52,27.40,30.18,4.62,26.86,1001.99,2032.00,2544.05,2665.26,2878.56,349.57,340.51,20.07,0000 0000 0000 0000 000000
2015-03-30 09:27:26,0.09,2.44,0.00,23.97,27.42,30.34,4.75,26.89,1001.98,2032.00,2543.00,2664.75,2877.89,350.49,342.04,20.10,0000 0000 0000 0000 000000
2015-03-30 09:32:27,0.09,2.45,0.00,23.69,27.41,30.23,4.73,26.76,1001.98,2032.00,2541.97,2664.03,2877.08,350.02,342.06,20.13,0000 0000 0000 0000 000000
2015-03-30 09:37:29,0.10,2.45,0.00,23.89,27.40,29.89,4.68,26.79,1001.97,2032.00,2541.06,2663.53,2876.59,349.96,341.71,20.16,0000 0000 0000 0000 000000
2015-03-30 09:42:30,0.06,2.45,0.00,24.19,27.39,29.81,4.66,26.81,1001.97,2032.01,2540.21,2663.00,2876.01,349.82,341.02,20.18,0000 0000 0000 0000 000000
2015-03-30 09:47:31,0.12,2.45,0.00,24.31,27.37,30.00,4.67,26.69,1001.98,2032.02,2539.52,2662.37,2875.31,349.86,341.22,20.21,0000 0000 0000 0000 000000
2015-03-30 09:52:32,0.08,2.46,0.00,24.49,27.37,30.09,4.71,26.80,1002.01,2032.02,2538.56,2661.79,2874.65,350.19,341.03,20.24,0000 0000 0000 0000 000000
2015-03-30 09:57:34,0.10,2.46,0.00,24.74,27.37,30.05,4.68,26.91,1002.18,2032.01,2537.38,2661.03,2873.82,350.62,341.36,20.27,0000 0000 0000 0000 000000
2015-03-30 10:02:35,0.10,2.46,0.00,24.88,27.37,29.92,4.70,26.73,1002.36,2032.00,2536.70,2660.26,2873.05,350.79,341.43,20.30,0000 0000 0000 0000 000000
2015-03-30 10:07:36,0.11,2.47,0.00,24.41,27.40,30.16,4.68,26.73,1002.34,2032.00,2535.78,2659.71,2872.20,350.02,341.24,20.33,0000 0000 0000 0000 000000
2015-03-30 10:12:37,0.09,2.47,0.00,23.92,27.40,30.32,4.69,26.92,1002.40,2032.00,2534.75,2659.01,2871.61,350.01,341.92,20.36,0000 0000 0000 0000 000000
2015-03-30 10:17:38,0.10,2.47,0.00,23.73,27.40,30.14,4.71,26.82,1002.40,2032.00,2533.78,2658.26,2870.92,349.78,341.77,20.39,0000 0000 0000 0000 000000
2015-03-30 10:22:40,0.06,2.47,0.00,24.07,27.38,29.81,4.65,26.73,1002.39,2032.00,2532.96,2657.94,2870.10,349.78,341.38,20.42,0000 0000 0000 0000 000000
2015-03-30 10:27:41,0.11,2.48,0.00,24.20,27.37,29.88,4.71,26.81,1002.38,2032.00,2532.08,2657.11,2869.59,350.09,341.53,20.45,0000 0000 0000 0000 000000
2015-03-30 10:32:42,0.08,2.48,0.00,24.30,27.35,29.94,4.66,26.80,1002.38,2032.02,2531.33,2656.71,2868.96,350.33,341.64,20.48,0000 0000 0000 0000 000000
2015-03-30 10:37:44,0.09,2.48,0.00,24.13,27.35,29.99,4.74,26.79,1002.29,2032.00,2530.34,2656.02,2868.15,350.38,341.86,20.51,0000 0000 0000 0000 000000
2015-03-30 10:42:45,0.11,2.49,0.00,24.42,27.35,30.02,4.69,26.77,1002.37,2032.00,2529.48,2655.32,2867.58,350.01,341.19,20.54,0000 0000 0000 0000 000000
2015-03-30 10:47:46,0.11,2.49,0.00,24.84,27.37,29.92,4.72,26.77,1002.43,2032.00,2528.52,2654.57,2866.75,350.61,341.27,20.56,0000 0000 0000 0000 000000
2015-03-30 10:52:47,0.09,2.49,0.00,24.47,27.38,30.09,4.65,26.83,1002.45,2032.00,2527.44,2653.79,2865.92,349.32,340.58,20.59,0000 0000 0000 0000 000000
2015-03-30 10:57:48,0.11,2.50,0.00,23.94,27.40,30.33,4.65,26.93,1002.46,2032.00,2526.13,2653.03,2865.07,349.43,341.13,20.62,0000 0000 0000 0000 000000
2015-03-30 11:02:49,0.12,2.50,0.00,23.71,27.40,30.23,4.67,26.88,1002.46,2032.00,2525.19,2652.43,2864.44,349.78,341.96,20.65,0000 0000 0000 0000 000000
2015-03-30 11:07:50,0.06,2.50,0.00,23.91,27.39,29.90,4.69,26.80,1002.44,2032.00,2524.17,2651.97,2863.88,350.37,342.08,20.68,0000 0000 0000 0000 000000
2015-03-30 11:12:52,0.12,2.51,0.00,24.16,27.37,29.82,4.62,26.74,1002.38,2032.01,2523.37,2651.23,2863.10,349.60,341.04,20.71,0000 0000 0000 0000 000000
2015-03-30 11:17:53,0.04,2.51,0.00,24.28,27.37,29.99,4.68,26.73,1002.21,2032.02,2522.81,2650.92,2862.68,350.15,341.46,20.74,0000 0000 0000 0000 000000
2015-03-30 11:22:55,0.10,2.51,0.00,24.43,27.35,30.04,4.67,26.79,1002.27,2032.02,2521.99,2650.12,2861.96,350.14,341.39,20.77,0000 0000 0000 0000 000000
2015-03-30 11:27:56,0.11,2.51,0.00,24.49,27.36,30.05,4.68,26.87,1002.41,2032.00,2521.14,2649.59,2861.11,350.19,341.31,20.80,0000 0000 0000 0000 000000
2015-03-30 11:32:57,0.09,2.52,0.00,24.81,27.37,30.05,4.63,26.78,1002.43,2032.00,2520.16,2648.90,2860.47,349.97,340.67,20.83,0000 0000 0000 0000 000000
2015-03-30 11:37:59,0.10,2.52,0.00,24.31,27.38,30.20,4.66,26.78,1002.44,2032.00,2519.12,2648.06,2859.74,349.76,341.00,20.86,0000 0000 0000 0000 000000
2015-03-30 11:43:00,0.10,2.52,0.00,23.87,27.40,30.33,4.67,26.83,1002.41,2032.00,2518.18,2647.55,2859.01,349.74,341.59,20.89,0000 0000 0000 0000 000000
2015-03-30 11:48:02,0.09,2.52,0.00,23.67,27.39,30.13,4.69,26.82,1002.34,2032.00,2517.22,2646.96,2858.20,349.76,341.63,20.92,0000 0000 0000 0000 000000
2015-03-30 11:53:03,0.10,2.53,0.00,23.94,27.37,29.80,4.66,26.73,1002.44,2032.00,2516.33,2646.22,2857.80,350.09,341.83,20.95,0000 0000 0000 0000 000000
2015-03-30 11:58:05,0.07,2.53,0.00,24.17,27.35,29.80,4.74,26.83,1002.44,2032.01,2515.43,2645.92,2857.04,349.92,341.40,20.97,0000 0000 0000 0000 000000
2015-03-30 12:03:06,0.10,2.53,0.00,24.35,27.35,29.95,4.64,26.73,1002.43,2032.01,2514.74,2645.14,2856.46,349.88,341.21,21.00,0000 0000 0000 0000 000000
2015-03-30 12:08:07,0.09,2.54,0.00,24.41,27.35,29.99,4.72,26.79,1002.39,2032.02,2513.86,2644.63,2855.83,350.03,341.57,21.03,0000 0000 0000 0000 000000
2015-03-30 12:13:09,0.07,2.54,0.00,24.40,27.35,30.02,4.67,26.97,1002.40,2032.02,2512.98,2644.00,2855.03,349.60,340.79,21.06,0000 0000 0000 0000 000000
2015-03-30 12:18:10,0.12,2.54,0.00,24.83,27.35,29.98,4.63,26.75,1002.42,2032.01,2512.05,2643.23,2854.21,349.80,340.53,21.09,0000 0000 0000 0000 000000
2015-03-30 12:23:11,0.12,2.54,0.00,24.44,27.37,30.15,4.66,26.81,1002.44,2032.01,2510.98,2642.52,2853.51,349.53,340.65,21.12,0000 0000 0000 0000 000000
2015-03-30 12:28:13,0.08,2.55,0.00,23.90,27.37,30.32,4.62,26.95,1002.44,2032.00,2509.85,2641.88,2852.73,349.12,340.97,21.15,0000 0000 0000 0000 000000
2015-03-30 12:33:14,0.11,2.55,0.00,23.66,27.37,30.21,4.68,26.83,1002.41,2032.00,2508.74,2641.07,2851.98,349.41,341.43,21.18,0000 0000 0000 0000 000000
2015-03-30 12:38:16,0.11,2.55,0.00,23.78,27.36,29.88,4.67,26.80,1002.45,2032.01,2507.76,2640.53,2851.19,350.14,342.08,21.21,0000 0000 0000 0000 000000
2015-03-30 12:43:17,0.06,2.56,0.00,24.09,27.35,29.84,4.64,26.73,1002.45,2032.02,2506.88,2640.00,2850.70,349.96,341.55,21.24,0000 0000 0000 0000 000000
2015-03-30 12:48:18,0.10,2.56,0.00,24.15,27.34,29.92,4.72,26.80,1002.40,2032.05,2506.06,2639.37,2850.02,349.77,341.13,21.27,0000 0000 0000 0000 000000
2015-03-30 12:53:19,0.08,2.56,0.00,24.36,27.32,29.97,4.67,26.81,1002.37,2032.03,2505.36,2638.87,2849.38,349.89,341.23,21.30,0000 0000 0000 0000 000000
2015-03-30 12:58:21,0.11,2.57,0.00,24.33,27.32,29.98,4.68,26.84,1002.36,2032.02,2504.41,2638.06,2848.69,349.89,341.20,21.33,0000 0000 0000 0000 000000